Location: Garos
(43.5000°N, 0.4667°W)
Time: 03:50:11
(UTC+00:00)

Cosmos 1606 Rocket - Pass Details

Date: 03 February 2023
Orbit: 602 x 630 km, 82.5° (Epoch: 26 March)

Event Time Altitude Azimuth Distance (km) Brightness Sun altitude
Rises 18:29:36 0° 350° (N) 2,865 7.0 -13.7°
Reaches altitude 10° 18:31:49 10° 350° (N) 1,958 6.1 -14.1°
Maximum altitude 18:36:08 80° 265° (W) 618 3.6 -14.9°
Drops below altitude 10° 18:40:27 10° 177° (S) 1,949 6.2 -15.6°
Sets 18:42:40 0° 176° (S) 2,852 7.0 -16.0°
